Current Version              Previous Version:    01  02  03  04  05  06  07  08  09  10  11  12  13  14  15  16  17  18  19  20  21  22  23  24  25  26  27  28  29  30  
   31  32  33  34  35  36  37  38  39  40  41  42  43  44  45  46  47  48  49  50  51  52  53  54  55  56  57  58  59  60  

[Printable]
758
ASUS44 KFWD 240803
RWRTX
NORTH TEXAS HOURLY WEATHER ROUNDUP
NATIONAL WEATHER SERVICE FORT WORTH TX
300 AM CDT THU APR 24 2014

NOTE: "FAIR" INDICATES FEW OR NO CLOUDS BELOW 12,000 FEET WITH NO
SIGNIFICANT WEATHER AND/OR OBSTRUCTIONS TO VISIBILITY.

TXZ118-119-240900-
DALLAS/FORT WORTH METROPLEX

CITY           SKY/WX    TMP DP  RH WIND       PRES   REMARKS
DFW AIRPORT    MOCLDY    71  62  73 S20G28    29.74S
DALLAS LOVE    MOCLDY    71  62  73 S14G22    29.76S
FTW MEACHAM    MOCLDY    71  62  73 S16G28    29.73R
DAL-EXECUTIVE  LGT RAIN  71  62  73 S10G25    29.75F
FTW-ALLIANCE   MOCLDY    70  62  76 S13G22    29.74R
FTW-NAS-JRB    MOCLDY    73  60  63 S17G25    29.77S
FTW-SPINKS     MOCLDY    70  61  74 S14G26    29.75F
ARLINGTON      MOCLDY    70  62  76 S16G26    29.74F
GRAND PRAIRIE  MOCLDY    70  61  73 S13G25    29.77F
ADDISON        MOCLDY    72  62  70 S16G22    29.78R
MESQUITE       PTCLDY    67  62  83 SE12      29.77F
LANCASTER      PTCLDY    69  62  78 S10       29.78S
$$

TXZ091>094-102>105-117-120-121-131>134-240900-
NORTH CENTRAL TEXAS

CITY           SKY/WX    TMP DP  RH WIND       PRES   REMARKS
SHRMAN/DENISON CLOUDY    69  60  74 SE10      29.77F
GAINESVILLE    PTCLDY    69  61  76 SE12      29.76F
BOWIE          CLEAR     69  62  78 SE9G16    29.71F
BRIDGEPORT     PTCLDY    70  60  70 S12G17    29.73F
DECATUR        MOCLDY    69  61  74 SE15      29.73F
DENTON         MOCLDY    70  62  76 SE14G21   29.75S
MCKINNEY       PTCLDY    69  63  81 SE10      29.77F
GREENVILLE     PTCLDY    64  61  88 SE7       29.79S
ROCKWALL       CLEAR     68  63  83 E10G16    29.76F
TERRELL        PTCLDY    69  65  86 S10       29.80S
WAXAHACHIE     PTCLDY    68  60  76 S12G17    29.78F
CLEBURNE       PTCLDY    70  64  83 S21       29.77F
GRANBURY       PTCLDY    71  62  71 SE14G21   29.75S
$$

TXZ083>090-098>101-113>116-127>130-139>142-154-155-240900-
WESTERN NORTH TEXAS

CITY           SKY/WX    TMP DP  RH WIND       PRES   REMARKS
WICHITA FALLS  CLEAR     68  61  78 SE16      29.66F
WF-KICKAPOO    CLEAR     68  61  77 SE12      29.68F
VERNON         CLEAR     69  61  74 S17       29.64S
ABILENE        CLEAR     71  60  68 S18G24    29.69F
ABILENE-DYESS  CLEAR     71  60  69 S20G26    29.68F
BRECKENRIDGE   CLEAR     73  61  66 S23G29    29.68F
GRAHAM         CLEAR     72  62  71 S13G21    29.67F
MINERAL WELLS  PTCLDY    70  62  76 S14G23    29.71F
STEPHENVILLE   PTCLDY    68  61  77 S10G21    29.78S
COMANCHE       CLOUDY    69  61  74 S12G18    29.76F
BROWNWOOD      CLOUDY    70  63  78 S14       29.76F
COLEMAN        CLEAR     69  59  69 S10       29.75F
BRADY          CLEAR     68  57  68 S10       29.76F
$$

TXZ143>147-156>162-174-175-240900-
CENTRAL TEXAS

CITY           SKY/WX    TMP DP  RH WIND       PRES   REMARKS
WACO           MOCLDY    68  62  81 S16G23    29.79R
WACO-MCGREGOR  PTCLDY    66  57  72 S14       29.80S
HILLSBORO      MOCLDY    68  60  75 S16G23    29.78S
CORSICANA      MOCLDY    70  63  78 S13       29.79F
MEXIA          MOCLDY    67  63  86 S12G17    29.79S
HEARNE         CLOUDY    69  64  83 SE13      29.80F
CAMERON        CLOUDY    68  63  83 S7        29.80R
TEMPLE         CLOUDY    66  57  72 SE12      29.82F
KILLEEN        MOCLDY    66  63  88 SE15      29.78F
KILLEEN-SKYLRK PTCLDY   N/A N/A N/A SE15      29.78F
GATESVILLE     MOCLDY    68  63  83 S9        29.80F
HAMILTON       MOCLDY    67  60  77 S14       29.79S
LAMPASAS       MOCLDY    67  63  86 S7        29.78S
$$

TXZ095>097-106>112-122>126-135>138-148>153-164>167-240900-
EAST TEXAS

CITY           SKY/WX    TMP DP  RH WIND       PRES   REMARKS
PARIS          PTCLDY    64  55  72 SE9       29.81F
SULPHUR SPRNGS PTCLDY    68  61  77 SE6       29.82F
CLARKSVILLE    PTCLDY    68  58  71 CALM      29.82F
MOUNT PLEASANT MOCLDY    65  58  78 E5        29.85S
MINEOLA        MOCLDY    70  63  78 SE5       29.83S
TYLER          CLOUDY    68  62  81 S9        29.82R
LONGVIEW       CLOUDY    68  61  78 S7        29.82R
MARSHALL       MOCLDY    66  62  88 CALM      29.86R
ATHENS         CLOUDY    68  63  83 S14G20    29.79S
PALESTINE      CLOUDY    68  63  82 SE10      29.83S HAZE
JACKSONVILLE   CLOUDY    65  62  88 S9G17     29.84F
HENDERSON      CLOUDY    66  62  87 S6        29.83F
NACOGDOCHES    CLOUDY    66  63  88 S10       29.84S
LUFKIN         CLOUDY    68  64  87 S8        29.84F
$$

SUPPLEMENTAL OBSERVATIONS (CENTRAL)

CITY           SKY/WX    TMP DP  RH WIND       PRES   REMARKS
$$

SUPPLEMENTAL OBSERVATIONS (WEST)

CITY           SKY/WX    TMP DP  RH WIND       PRES   REMARKS
$$

SUPPLEMENTAL OBSERVATIONS (EAST)

CITY           SKY/WX    TMP DP  RH WIND       PRES   REMARKS
$$

SUPPLEMENTAL OBSERVATIONS ARE A COLLECTION OF AUTOMATED INSTRUMENTS
THAT ARE MAINTAINED BY A VARIETY OF FEDERAL AND STATE AGENCIES.
CERTAIN ELEMENTS...SUCH AS HUMIDITY VALUES AND SUSTAINED WIND
SPEEDS...MAY BE APPROXIMATED.